Year,Month,Day,Hour,Minute,Value (Times are PST for temperature in C)
2007,10,10,00,00,12.70
2007,10,10,00,01,12.70
2007,10,10,00,02,12.80
2007,10,10,00,03,12.80
2007,10,10,00,04,12.80
2007,10,10,00,05,12.80
2007,10,10,00,06,12.80
2007,10,10,00,07,12.90
2007,10,10,00,08,12.90
2007,10,10,00,09,13.00
2007,10,10,00,10,13.00
2007,10,10,00,11,13.10
2007,10,10,00,12,13.10
2007,10,10,00,13,13.20
2007,10,10,00,14,13.20
2007,10,10,00,15,13.20
2007,10,10,00,16,13.30
2007,10,10,00,17,13.30
2007,10,10,00,18,13.30
2007,10,10,00,19,13.30
2007,10,10,00,20,13.30
2007,10,10,00,21,13.30
2007,10,10,00,22,13.30
2007,10,10,00,23,13.30
2007,10,10,00,24,13.30
2007,10,10,00,25,13.30
2007,10,10,00,26,13.30
2007,10,10,00,27,13.40
2007,10,10,00,28,13.40
2007,10,10,00,29,13.40
2007,10,10,00,30,13.40
2007,10,10,00,31,13.40
2007,10,10,00,32,13.40
2007,10,10,00,33,13.40
2007,10,10,00,34,13.40
2007,10,10,00,35,13.40
2007,10,10,00,36,13.30
2007,10,10,00,37,13.40
2007,10,10,00,38,13.40
2007,10,10,00,39,13.40
2007,10,10,00,40,13.40
2007,10,10,00,41,13.40
2007,10,10,00,42,13.40
2007,10,10,00,43,13.40
2007,10,10,00,44,13.40
2007,10,10,00,45,13.40
2007,10,10,00,46,13.40
2007,10,10,00,47,13.40
2007,10,10,00,48,13.40
2007,10,10,00,49,13.40
2007,10,10,00,50,13.40
2007,10,10,00,51,13.50
2007,10,10,00,52,13.50
2007,10,10,00,53,13.50
2007,10,10,00,54,13.50
2007,10,10,00,55,13.50
2007,10,10,00,56,13.50
2007,10,10,00,57,13.50
2007,10,10,00,58,13.50
2007,10,10,00,59,13.50
2007,10,10,01,00,13.60
2007,10,10,01,01,13.60
2007,10,10,01,02,13.60
2007,10,10,01,03,13.60
2007,10,10,01,04,13.60
2007,10,10,01,05,13.60
2007,10,10,01,06,13.60
2007,10,10,01,07,13.60
2007,10,10,01,08,13.60
2007,10,10,01,09,13.50
2007,10,10,01,10,13.50
2007,10,10,01,11,13.50
2007,10,10,01,12,13.50
2007,10,10,01,13,13.50
2007,10,10,01,14,13.60
2007,10,10,01,15,13.60
2007,10,10,01,16,13.60
2007,10,10,01,17,13.60
2007,10,10,01,18,13.60
2007,10,10,01,19,13.60
2007,10,10,01,20,13.60
2007,10,10,01,21,13.60
2007,10,10,01,22,13.60
2007,10,10,01,23,13.60
2007,10,10,01,24,13.60
2007,10,10,01,25,13.60
2007,10,10,01,26,13.60
2007,10,10,01,27,13.60
2007,10,10,01,28,13.60
2007,10,10,01,29,13.50
2007,10,10,01,30,13.50
2007,10,10,01,31,13.50
2007,10,10,01,32,13.50
2007,10,10,01,33,13.50
2007,10,10,01,34,13.50
2007,10,10,01,35,13.40
2007,10,10,01,36,13.40
2007,10,10,01,37,13.40
2007,10,10,01,38,13.40
2007,10,10,01,39,13.50
2007,10,10,01,40,13.50
2007,10,10,01,41,13.60
2007,10,10,01,42,13.60
2007,10,10,01,43,13.70
2007,10,10,01,44,13.70
2007,10,10,01,45,13.70
2007,10,10,01,46,13.70
2007,10,10,01,47,13.80
2007,10,10,01,48,13.80
2007,10,10,01,49,13.80
2007,10,10,01,50,13.80
2007,10,10,01,51,13.80
2007,10,10,01,52,13.80
2007,10,10,01,53,13.80
2007,10,10,01,54,13.80
2007,10,10,01,55,13.80
2007,10,10,01,56,13.80
2007,10,10,01,57,13.80
2007,10,10,01,58,13.80
2007,10,10,01,59,13.80
2007,10,10,02,00,13.80
2007,10,10,02,01,13.80
2007,10,10,02,02,13.80
2007,10,10,02,03,13.80
2007,10,10,02,04,13.80
2007,10,10,02,05,13.80
2007,10,10,02,06,13.80
2007,10,10,02,07,13.80
2007,10,10,02,08,13.80
2007,10,10,02,09,13.90
2007,10,10,02,10,13.90
2007,10,10,02,11,13.90
2007,10,10,02,12,13.90
2007,10,10,02,13,13.90
2007,10,10,02,14,14.00
2007,10,10,02,15,14.00
2007,10,10,02,16,14.00
2007,10,10,02,17,14.00
2007,10,10,02,18,14.00
2007,10,10,02,19,14.10
2007,10,10,02,20,14.10
2007,10,10,02,21,14.10
2007,10,10,02,22,14.10
2007,10,10,02,23,14.10
2007,10,10,02,24,14.10
2007,10,10,02,25,14.10
2007,10,10,02,26,14.10
2007,10,10,02,27,14.10
2007,10,10,02,28,14.10
2007,10,10,02,29,14.10
2007,10,10,02,30,14.00
2007,10,10,02,31,14.00
2007,10,10,02,32,14.00
2007,10,10,02,33,13.90
2007,10,10,02,34,13.90
2007,10,10,02,35,13.90
2007,10,10,02,36,13.90
2007,10,10,02,37,13.90
2007,10,10,02,38,13.90
2007,10,10,02,39,13.90
2007,10,10,02,40,13.90
2007,10,10,02,41,13.80
2007,10,10,02,42,13.80
2007,10,10,02,43,13.80
2007,10,10,02,44,13.80
2007,10,10,02,45,13.80
2007,10,10,02,46,13.80
2007,10,10,02,47,13.80
2007,10,10,02,48,13.70
2007,10,10,02,49,13.70
2007,10,10,02,50,13.70
2007,10,10,02,51,13.70
2007,10,10,02,52,13.70
2007,10,10,02,53,13.70
2007,10,10,02,54,13.70
2007,10,10,02,55,13.70
2007,10,10,02,56,13.70
2007,10,10,02,57,13.70
2007,10,10,02,58,13.70
2007,10,10,02,59,13.70
2007,10,10,03,00,13.60
2007,10,10,03,01,13.60
2007,10,10,03,02,13.60
2007,10,10,03,03,13.60
2007,10,10,03,04,13.60
2007,10,10,03,05,13.60
2007,10,10,03,06,13.60
2007,10,10,03,07,13.60
2007,10,10,03,08,13.60
2007,10,10,03,09,13.60
2007,10,10,03,10,13.50
2007,10,10,03,11,13.50
2007,10,10,03,12,13.40
2007,10,10,03,13,13.40
2007,10,10,03,14,13.40
2007,10,10,03,15,13.30
2007,10,10,03,16,13.30
2007,10,10,03,17,13.20
2007,10,10,03,18,13.20
2007,10,10,03,19,13.10
2007,10,10,03,20,13.00
2007,10,10,03,21,13.00
2007,10,10,03,22,12.90
2007,10,10,03,23,12.90
2007,10,10,03,24,12.80
2007,10,10,03,25,12.80
2007,10,10,03,26,12.80
2007,10,10,03,27,12.70
2007,10,10,03,28,12.70
2007,10,10,03,29,12.70
2007,10,10,03,30,12.70
2007,10,10,03,31,12.70
2007,10,10,03,32,12.70
2007,10,10,03,33,12.60
2007,10,10,03,34,12.60
2007,10,10,03,35,12.60
2007,10,10,03,36,12.60
2007,10,10,03,37,12.60
2007,10,10,03,38,12.60
2007,10,10,03,39,12.60
2007,10,10,03,40,12.60
2007,10,10,03,41,12.60
2007,10,10,03,42,12.60
2007,10,10,03,43,12.60
2007,10,10,03,44,12.60
2007,10,10,03,45,12.70
2007,10,10,03,46,12.70
2007,10,10,03,47,12.70
2007,10,10,03,48,12.70
2007,10,10,03,49,12.70
2007,10,10,03,50,12.70
2007,10,10,03,51,12.70
2007,10,10,03,52,12.70
2007,10,10,03,53,12.70
2007,10,10,03,54,12.70
2007,10,10,03,55,12.70
2007,10,10,03,56,12.70
2007,10,10,03,57,12.70
2007,10,10,03,58,12.70
2007,10,10,03,59,12.70
2007,10,10,04,00,12.70
2007,10,10,04,01,12.70
2007,10,10,04,02,12.70
2007,10,10,04,03,12.70
2007,10,10,04,04,12.70
2007,10,10,04,05,12.70
2007,10,10,04,06,12.70
2007,10,10,04,07,12.70
2007,10,10,04,08,12.70
2007,10,10,04,09,12.70
2007,10,10,04,10,12.70
2007,10,10,04,11,12.70
2007,10,10,04,12,12.70
2007,10,10,04,13,12.70
2007,10,10,04,14,12.70
2007,10,10,04,15,12.70
2007,10,10,04,16,12.70
2007,10,10,04,17,12.70
2007,10,10,04,18,12.60
2007,10,10,04,19,12.60
2007,10,10,04,20,12.60
2007,10,10,04,21,12.60
2007,10,10,04,22,12.60
2007,10,10,04,23,12.60
2007,10,10,04,24,12.60
2007,10,10,04,25,12.70
2007,10,10,04,26,12.70
2007,10,10,04,27,12.70
2007,10,10,04,28,12.70
2007,10,10,04,29,12.70
2007,10,10,04,30,12.70
2007,10,10,04,31,12.70
2007,10,10,04,32,12.70
2007,10,10,04,33,12.70
2007,10,10,04,34,12.70
2007,10,10,04,35,12.70
2007,10,10,04,36,12.70
2007,10,10,04,37,12.70
2007,10,10,04,38,12.70
2007,10,10,04,39,12.70
2007,10,10,04,40,12.70
2007,10,10,04,41,12.70
2007,10,10,04,42,12.70
2007,10,10,04,43,12.70
2007,10,10,04,44,12.70
2007,10,10,04,45,12.70
2007,10,10,04,46,12.70
2007,10,10,04,47,12.60
2007,10,10,04,48,12.60
2007,10,10,04,49,12.60
2007,10,10,04,50,12.60
2007,10,10,04,51,12.60
2007,10,10,04,52,12.60
2007,10,10,04,53,12.60
2007,10,10,04,54,12.60
2007,10,10,04,55,12.60
2007,10,10,04,56,12.60
2007,10,10,04,57,12.50
2007,10,10,04,58,12.50
2007,10,10,04,59,12.50
2007,10,10,05,00,12.50
2007,10,10,05,01,12.50
2007,10,10,05,02,12.50
2007,10,10,05,03,12.50
2007,10,10,05,04,12.50
2007,10,10,05,05,12.50
2007,10,10,05,06,12.50
2007,10,10,05,07,12.40
2007,10,10,05,08,12.50
2007,10,10,05,09,12.50
2007,10,10,05,10,12.40
2007,10,10,05,11,12.40
2007,10,10,05,12,12.40
2007,10,10,05,13,12.40
2007,10,10,05,14,12.40
2007,10,10,05,15,12.40
2007,10,10,05,16,12.40
2007,10,10,05,17,12.40
2007,10,10,05,18,12.40
2007,10,10,05,19,12.40
2007,10,10,05,20,12.40
2007,10,10,05,21,12.40
2007,10,10,05,22,12.40
2007,10,10,05,23,12.30
2007,10,10,05,24,12.30
2007,10,10,05,25,12.30
2007,10,10,05,26,12.30
2007,10,10,05,27,12.30
2007,10,10,05,28,12.20
2007,10,10,05,29,12.20
2007,10,10,05,30,12.20
2007,10,10,05,31,12.10
2007,10,10,05,32,12.10
2007,10,10,05,33,12.10
2007,10,10,05,34,12.10
2007,10,10,05,35,12.00
2007,10,10,05,36,12.00
2007,10,10,05,37,12.00
2007,10,10,05,38,11.90
2007,10,10,05,39,11.90
2007,10,10,05,40,11.90
2007,10,10,05,41,11.90
2007,10,10,05,42,11.90
2007,10,10,05,43,11.90
2007,10,10,05,44,11.80
2007,10,10,05,45,11.80
2007,10,10,05,46,11.80
2007,10,10,05,47,11.80
2007,10,10,05,48,11.80
2007,10,10,05,49,11.80
2007,10,10,05,50,11.80
2007,10,10,05,51,11.80
2007,10,10,05,52,11.80
2007,10,10,05,53,11.70
2007,10,10,05,54,11.70
2007,10,10,05,55,11.70
2007,10,10,05,56,11.70
2007,10,10,05,57,11.70
2007,10,10,05,58,11.70
2007,10,10,05,59,11.70
2007,10,10,06,00,11.70
2007,10,10,06,01,11.70
2007,10,10,06,02,11.70
2007,10,10,06,03,11.70
2007,10,10,06,04,11.70
2007,10,10,06,05,11.60
2007,10,10,06,06,11.60
2007,10,10,06,07,11.60
2007,10,10,06,08,11.60
2007,10,10,06,09,11.60
2007,10,10,06,10,11.60
2007,10,10,06,11,11.60
2007,10,10,06,12,11.60
2007,10,10,06,13,11.60
2007,10,10,06,14,11.50
2007,10,10,06,15,11.50
2007,10,10,06,16,11.50
2007,10,10,06,17,11.50
2007,10,10,06,18,11.40
2007,10,10,06,19,11.40
2007,10,10,06,20,11.40
2007,10,10,06,21,11.40
2007,10,10,06,22,11.40
2007,10,10,06,23,11.40
2007,10,10,06,24,11.40
2007,10,10,06,25,11.30
2007,10,10,06,26,11.30
2007,10,10,06,27,11.30
2007,10,10,06,28,11.30
2007,10,10,06,29,11.30
2007,10,10,06,30,11.30
2007,10,10,06,31,11.30
2007,10,10,06,32,11.20
2007,10,10,06,33,11.20
2007,10,10,06,34,11.20
2007,10,10,06,35,11.20
2007,10,10,06,36,11.20
2007,10,10,06,37,11.20
2007,10,10,06,38,11.10
2007,10,10,06,39,11.10
2007,10,10,06,40,11.10
2007,10,10,06,41,11.10
2007,10,10,06,42,11.10
2007,10,10,06,43,11.00
2007,10,10,06,44,11.00
2007,10,10,06,45,11.00
2007,10,10,06,46,11.00
2007,10,10,06,47,10.90
2007,10,10,06,48,10.90
2007,10,10,06,49,10.90
2007,10,10,06,50,10.90
2007,10,10,06,51,10.80
2007,10,10,06,52,10.80
2007,10,10,06,53,10.80
2007,10,10,06,54,10.80
2007,10,10,06,55,10.80
2007,10,10,06,56,10.70
2007,10,10,06,57,10.70
2007,10,10,06,58,10.70
2007,10,10,06,59,10.70
2007,10,10,07,00,10.70
2007,10,10,07,01,10.60
2007,10,10,07,02,10.60
2007,10,10,07,03,10.60
2007,10,10,07,04,10.60
2007,10,10,07,05,10.60
2007,10,10,07,06,10.60
2007,10,10,07,07,10.50
2007,10,10,07,08,10.50
2007,10,10,07,09,10.50
2007,10,10,07,10,10.50
2007,10,10,07,11,10.40
2007,10,10,07,12,10.40
2007,10,10,07,13,10.40
2007,10,10,07,14,10.40
2007,10,10,07,15,10.40
2007,10,10,07,16,10.40
2007,10,10,07,17,10.30
2007,10,10,07,18,10.30
2007,10,10,07,19,10.30
2007,10,10,07,20,10.30
2007,10,10,07,21,10.30
2007,10,10,07,22,10.30
2007,10,10,07,23,10.20
2007,10,10,07,24,10.20
2007,10,10,07,25,10.20
2007,10,10,07,26,10.20
2007,10,10,07,27,10.20
2007,10,10,07,28,10.20
2007,10,10,07,29,10.10
2007,10,10,07,30,10.10
2007,10,10,07,31,10.10
2007,10,10,07,32,10.10
2007,10,10,07,33,10.10
2007,10,10,07,34,10.10
2007,10,10,07,35,10.00
2007,10,10,07,36,10.00
2007,10,10,07,37,10.00
2007,10,10,07,38,9.90
2007,10,10,07,39,9.90
2007,10,10,07,40,9.90
2007,10,10,07,41,9.90
2007,10,10,07,42,9.90
2007,10,10,07,43,9.80
2007,10,10,07,44,9.80
2007,10,10,07,45,9.80
2007,10,10,07,46,9.80
2007,10,10,07,47,9.80
2007,10,10,07,48,9.80
2007,10,10,07,49,9.80
2007,10,10,07,50,9.80
2007,10,10,07,51,9.80
2007,10,10,07,52,9.80
2007,10,10,07,53,9.80
2007,10,10,07,54,9.80
2007,10,10,07,55,9.80
2007,10,10,07,56,9.80
2007,10,10,07,57,9.80
2007,10,10,07,58,9.80
2007,10,10,07,59,9.80
2007,10,10,08,00,9.70
2007,10,10,08,01,9.70
2007,10,10,08,02,9.70
2007,10,10,08,03,9.70
2007,10,10,08,04,9.70
2007,10,10,08,05,9.70
2007,10,10,08,06,9.60
2007,10,10,08,07,9.60
2007,10,10,08,08,9.60
2007,10,10,08,09,9.60
2007,10,10,08,10,9.60
2007,10,10,08,11,9.60
2007,10,10,08,12,9.60
2007,10,10,08,13,9.60
2007,10,10,08,14,9.60
2007,10,10,08,15,9.60
2007,10,10,08,16,9.70
2007,10,10,08,17,9.70
2007,10,10,08,18,9.70
2007,10,10,08,19,9.70
2007,10,10,08,20,9.70
2007,10,10,08,21,9.70
2007,10,10,08,22,9.70
2007,10,10,08,23,9.70
2007,10,10,08,24,9.70
2007,10,10,08,25,9.70
2007,10,10,08,26,9.70
2007,10,10,08,27,9.70
2007,10,10,08,28,9.70
2007,10,10,08,29,9.70
2007,10,10,08,30,9.70
2007,10,10,08,31,9.70
2007,10,10,08,32,9.70
2007,10,10,08,33,9.70
2007,10,10,08,34,9.70
2007,10,10,08,35,9.70
2007,10,10,08,36,9.70
2007,10,10,08,37,9.70
2007,10,10,08,38,9.80
2007,10,10,08,39,9.80
2007,10,10,08,40,9.80
2007,10,10,08,41,9.80
2007,10,10,08,42,9.80
2007,10,10,08,43,9.80
2007,10,10,08,44,9.90
2007,10,10,08,45,9.90
2007,10,10,08,46,9.90
2007,10,10,08,47,9.90
2007,10,10,08,48,10.00
2007,10,10,08,49,10.00
2007,10,10,08,50,10.00
2007,10,10,08,51,10.10
2007,10,10,08,52,10.10
2007,10,10,08,53,10.10
2007,10,10,08,54,10.10
2007,10,10,08,55,10.20
2007,10,10,08,56,10.20
2007,10,10,08,57,10.20
2007,10,10,08,58,10.20
2007,10,10,08,59,10.30
2007,10,10,09,00,10.30
2007,10,10,09,01,10.30
2007,10,10,09,02,10.40
2007,10,10,09,03,10.40
2007,10,10,09,04,10.40
2007,10,10,09,05,10.50
2007,10,10,09,06,10.50
2007,10,10,09,07,10.60
2007,10,10,09,08,10.60
2007,10,10,09,09,10.60
2007,10,10,09,10,10.70
2007,10,10,09,11,10.70
2007,10,10,09,12,10.70
2007,10,10,09,13,10.80
2007,10,10,09,14,10.80
2007,10,10,09,15,10.80
2007,10,10,09,16,10.90
2007,10,10,09,17,10.90
2007,10,10,09,18,11.00
2007,10,10,09,19,11.00
2007,10,10,09,20,11.10
2007,10,10,09,21,11.20
2007,10,10,09,22,11.20
2007,10,10,09,23,11.30
2007,10,10,09,24,11.30
2007,10,10,09,25,11.30
2007,10,10,09,26,11.30
2007,10,10,09,27,11.40
2007,10,10,09,28,11.40
2007,10,10,09,29,11.40
2007,10,10,09,30,11.40
2007,10,10,09,31,11.40
2007,10,10,09,32,11.50
2007,10,10,09,33,11.50
2007,10,10,09,34,11.50
2007,10,10,09,35,11.60
2007,10,10,09,36,11.60
2007,10,10,09,37,11.60
2007,10,10,09,38,11.60
2007,10,10,09,39,11.60
2007,10,10,09,40,11.70
2007,10,10,09,41,11.70
2007,10,10,09,42,11.70
2007,10,10,09,43,11.70
2007,10,10,09,44,11.70
2007,10,10,09,45,11.70
2007,10,10,09,46,11.70
2007,10,10,09,47,11.70
2007,10,10,09,48,11.80
2007,10,10,09,49,11.70
2007,10,10,09,50,11.70
2007,10,10,09,51,11.70
2007,10,10,09,52,11.70
2007,10,10,09,53,11.70
2007,10,10,09,54,11.70
2007,10,10,09,55,11.70
2007,10,10,09,56,11.70
2007,10,10,09,57,11.70
2007,10,10,09,58,11.80
2007,10,10,09,59,11.80
2007,10,10,10,00,11.80
2007,10,10,10,01,11.80
2007,10,10,10,02,11.80
2007,10,10,10,03,11.80
2007,10,10,10,04,11.80
2007,10,10,10,05,11.90
2007,10,10,10,06,11.90
2007,10,10,10,07,12.00
2007,10,10,10,08,12.00
2007,10,10,10,09,12.10
2007,10,10,10,10,12.10
2007,10,10,10,11,12.20
2007,10,10,10,12,12.20
2007,10,10,10,13,12.20
2007,10,10,10,14,12.30
2007,10,10,10,15,12.30
2007,10,10,10,16,12.30
2007,10,10,10,17,12.30
2007,10,10,10,18,12.30
2007,10,10,10,19,12.30
2007,10,10,10,20,12.30
2007,10,10,10,21,12.30
2007,10,10,10,22,12.40
2007,10,10,10,23,12.40
2007,10,10,10,24,12.40
2007,10,10,10,25,12.50
2007,10,10,10,26,12.50
2007,10,10,10,27,12.60
2007,10,10,10,28,12.70
2007,10,10,10,29,12.70
2007,10,10,10,30,12.80
2007,10,10,10,31,12.80
2007,10,10,10,32,12.90
2007,10,10,10,33,13.00
2007,10,10,10,34,13.10
2007,10,10,10,35,13.20
2007,10,10,10,36,13.30
2007,10,10,10,37,13.40
2007,10,10,10,38,13.60
2007,10,10,10,39,13.70
2007,10,10,10,40,13.80
2007,10,10,10,41,13.90
2007,10,10,10,42,14.00
2007,10,10,10,43,14.10
2007,10,10,10,44,14.20
2007,10,10,10,45,14.30
2007,10,10,10,46,14.40
2007,10,10,10,47,14.50
2007,10,10,10,48,14.60
2007,10,10,10,49,14.70
2007,10,10,10,50,14.80
2007,10,10,10,51,14.90
2007,10,10,10,52,15.00
2007,10,10,10,53,15.00
2007,10,10,10,54,15.00
2007,10,10,10,55,15.00
2007,10,10,10,56,15.00
2007,10,10,10,57,15.20
2007,10,10,10,58,15.20
2007,10,10,10,59,15.30
2007,10,10,11,00,15.30
2007,10,10,11,01,15.30
2007,10,10,11,02,15.30
2007,10,10,11,03,15.30
2007,10,10,11,04,15.30
2007,10,10,11,05,15.40
2007,10,10,11,06,15.40
2007,10,10,11,07,15.40
2007,10,10,11,08,15.50
2007,10,10,11,09,15.60
2007,10,10,11,10,15.60
2007,10,10,11,11,15.70
2007,10,10,11,12,15.80
2007,10,10,11,13,15.80
2007,10,10,11,14,15.80
2007,10,10,11,15,15.80
2007,10,10,11,16,15.80
2007,10,10,11,17,15.90
2007,10,10,11,18,15.90
2007,10,10,11,19,16.00
2007,10,10,11,20,16.00
2007,10,10,11,21,16.10
2007,10,10,11,22,16.20
2007,10,10,11,23,16.20
2007,10,10,11,24,16.30
2007,10,10,11,25,16.30
2007,10,10,11,26,16.30
2007,10,10,11,27,16.40
2007,10,10,11,28,16.40
2007,10,10,11,29,16.40
2007,10,10,11,30,16.50
2007,10,10,11,31,16.50
2007,10,10,11,32,16.60
2007,10,10,11,33,16.60
2007,10,10,11,34,16.60
2007,10,10,11,35,16.60
2007,10,10,11,36,16.70
2007,10,10,11,37,16.70
2007,10,10,11,38,16.70
2007,10,10,11,39,16.80
2007,10,10,11,40,16.80
2007,10,10,11,41,16.70
2007,10,10,11,42,16.70
2007,10,10,11,43,16.60
2007,10,10,11,44,16.60
2007,10,10,11,45,16.60
2007,10,10,11,46,16.60
2007,10,10,11,47,16.60
2007,10,10,11,48,16.60
2007,10,10,11,49,16.60
2007,10,10,11,50,16.50
2007,10,10,11,51,16.50
2007,10,10,11,52,16.50
2007,10,10,11,53,16.50
2007,10,10,11,54,16.50
2007,10,10,11,55,16.50
2007,10,10,11,56,16.50
2007,10,10,11,57,16.50
2007,10,10,11,58,16.50
2007,10,10,11,59,16.50
2007,10,10,12,00,16.40
2007,10,10,12,01,16.40
2007,10,10,12,02,16.40
2007,10,10,12,03,16.40
2007,10,10,12,04,16.40
2007,10,10,12,05,16.40
2007,10,10,12,06,16.30
2007,10,10,12,07,16.30
2007,10,10,12,08,16.30
2007,10,10,12,09,16.30
2007,10,10,12,10,16.30
2007,10,10,12,11,16.30
2007,10,10,12,12,16.30
2007,10,10,12,13,16.30
2007,10,10,12,14,16.20
2007,10,10,12,15,16.20
2007,10,10,12,16,16.20
2007,10,10,12,17,16.20
2007,10,10,12,18,16.20
2007,10,10,12,19,16.30
2007,10,10,12,20,16.30
2007,10,10,12,21,16.30
2007,10,10,12,22,16.30
2007,10,10,12,23,16.30
2007,10,10,12,24,16.30
2007,10,10,12,25,16.30
2007,10,10,12,26,16.30
2007,10,10,12,27,16.30
2007,10,10,12,28,16.30
2007,10,10,12,29,16.30
2007,10,10,12,30,16.30
2007,10,10,12,31,16.30
2007,10,10,12,32,16.30
2007,10,10,12,33,16.40
2007,10,10,12,34,16.40
2007,10,10,12,35,16.40
2007,10,10,12,36,16.40
2007,10,10,12,37,16.50
2007,10,10,12,38,16.50
2007,10,10,12,39,16.50
2007,10,10,12,40,16.50
2007,10,10,12,41,16.50
2007,10,10,12,42,16.40
2007,10,10,12,43,16.40
2007,10,10,12,44,16.40
2007,10,10,12,45,16.40
2007,10,10,12,46,16.40
2007,10,10,12,47,16.40
2007,10,10,12,48,16.40
2007,10,10,12,49,16.40
2007,10,10,12,50,16.40
2007,10,10,12,51,16.40
2007,10,10,12,52,16.40
2007,10,10,12,53,16.40
2007,10,10,12,54,16.30
2007,10,10,12,55,16.30
2007,10,10,12,56,16.30
2007,10,10,12,57,16.30
2007,10,10,12,58,16.30
2007,10,10,12,59,16.30
2007,10,10,13,00,16.20
2007,10,10,13,01,16.20
2007,10,10,13,02,16.20
2007,10,10,13,03,16.10
2007,10,10,13,04,16.10
2007,10,10,13,05,16.10
2007,10,10,13,06,16.10
2007,10,10,13,07,16.00
2007,10,10,13,08,16.00
2007,10,10,13,09,16.00
2007,10,10,13,10,16.00
2007,10,10,13,11,15.90
2007,10,10,13,12,15.90
2007,10,10,13,13,15.90
2007,10,10,13,14,16.00
2007,10,10,13,15,16.00
2007,10,10,13,16,16.10
2007,10,10,13,17,16.10
2007,10,10,13,18,16.20
2007,10,10,13,19,16.20
2007,10,10,13,20,16.30
2007,10,10,13,21,16.30
2007,10,10,13,22,16.40
2007,10,10,13,23,16.40
2007,10,10,13,24,16.50
2007,10,10,13,25,16.50
2007,10,10,13,26,16.50
2007,10,10,13,27,16.50
2007,10,10,13,28,16.50
2007,10,10,13,29,16.50
2007,10,10,13,30,16.50
2007,10,10,13,31,16.50
2007,10,10,13,32,16.60
2007,10,10,13,33,16.60
2007,10,10,13,34,16.60
2007,10,10,13,35,16.70
2007,10,10,13,36,16.60
2007,10,10,13,37,16.60
2007,10,10,13,38,16.60
2007,10,10,13,39,16.60
2007,10,10,13,40,16.60
2007,10,10,13,41,16.50
2007,10,10,13,42,16.50
2007,10,10,13,43,16.50
2007,10,10,13,44,16.40
2007,10,10,13,45,16.40
2007,10,10,13,46,16.40
2007,10,10,13,47,16.40
2007,10,10,13,48,16.50
2007,10,10,13,49,16.50
2007,10,10,13,50,16.50
2007,10,10,13,51,16.50
2007,10,10,13,52,16.50
2007,10,10,13,53,16.50
2007,10,10,13,54,16.50
2007,10,10,13,55,16.50
2007,10,10,13,56,16.50
2007,10,10,13,57,16.50
2007,10,10,13,58,16.40
2007,10,10,13,59,16.40
2007,10,10,14,00,16.40
2007,10,10,14,01,16.30
2007,10,10,14,02,16.30
2007,10,10,14,03,16.30
2007,10,10,14,04,16.20
2007,10,10,14,05,16.20
2007,10,10,14,06,16.10
2007,10,10,14,07,16.10
2007,10,10,14,08,16.10
2007,10,10,14,09,16.00
2007,10,10,14,10,15.90
2007,10,10,14,11,15.90
2007,10,10,14,12,15.90
2007,10,10,14,13,15.90
2007,10,10,14,14,15.90
2007,10,10,14,15,15.80
2007,10,10,14,16,15.80
2007,10,10,14,17,15.80
2007,10,10,14,18,15.80
2007,10,10,14,19,15.70
2007,10,10,14,20,15.70
2007,10,10,14,21,15.70
2007,10,10,14,22,15.70
2007,10,10,14,23,15.60
2007,10,10,14,24,15.60
2007,10,10,14,25,15.60
2007,10,10,14,26,15.60
2007,10,10,14,27,15.60
2007,10,10,14,28,15.60
2007,10,10,14,29,15.60
2007,10,10,14,30,15.60
2007,10,10,14,31,15.60
2007,10,10,14,32,15.50
2007,10,10,14,33,15.50
2007,10,10,14,34,15.50
2007,10,10,14,35,15.50
2007,10,10,14,36,15.50
2007,10,10,14,37,15.50
2007,10,10,14,38,15.50
2007,10,10,14,39,15.50
2007,10,10,14,40,15.50
2007,10,10,14,41,15.40
2007,10,10,14,42,15.40
2007,10,10,14,43,15.40
2007,10,10,14,44,15.40
2007,10,10,14,45,15.40
2007,10,10,14,46,15.40
2007,10,10,14,47,15.30
2007,10,10,14,48,15.30
2007,10,10,14,49,15.30
2007,10,10,14,50,15.30
2007,10,10,14,51,15.20
2007,10,10,14,52,15.20
2007,10,10,14,53,15.20
2007,10,10,14,54,15.10
2007,10,10,14,55,15.10
2007,10,10,14,56,15.00
2007,10,10,14,57,15.00
2007,10,10,14,58,15.00
2007,10,10,14,59,15.00
2007,10,10,15,00,15.00
2007,10,10,15,01,15.00
2007,10,10,15,02,15.00
2007,10,10,15,03,15.00
2007,10,10,15,04,15.00
2007,10,10,15,05,15.00
2007,10,10,15,06,15.00
2007,10,10,15,07,15.00
2007,10,10,15,08,15.00
2007,10,10,15,09,14.90
2007,10,10,15,10,14.90
2007,10,10,15,11,14.90
2007,10,10,15,12,14.80
2007,10,10,15,13,14.80
2007,10,10,15,14,14.80
2007,10,10,15,15,14.80
2007,10,10,15,16,14.70
2007,10,10,15,17,14.70
2007,10,10,15,18,14.70
2007,10,10,15,19,14.70
2007,10,10,15,20,14.70
2007,10,10,15,21,14.70
2007,10,10,15,22,14.70
2007,10,10,15,23,14.70
2007,10,10,15,24,14.70
2007,10,10,15,25,14.70
2007,10,10,15,26,14.60
2007,10,10,15,27,14.50
2007,10,10,15,28,14.50
2007,10,10,15,29,14.40
2007,10,10,15,30,14.40
2007,10,10,15,31,14.40
2007,10,10,15,32,14.30
2007,10,10,15,33,14.30
2007,10,10,15,34,14.30
2007,10,10,15,35,14.30
2007,10,10,15,36,14.30
2007,10,10,15,37,14.20
2007,10,10,15,38,14.20
2007,10,10,15,39,14.20
2007,10,10,15,40,14.20
2007,10,10,15,41,14.20
2007,10,10,15,42,14.20
2007,10,10,15,43,14.20
2007,10,10,15,44,14.30
2007,10,10,15,45,14.30
2007,10,10,15,46,14.30
2007,10,10,15,47,14.30
2007,10,10,15,48,14.30
2007,10,10,15,49,14.20
2007,10,10,15,50,14.20
2007,10,10,15,51,14.20
2007,10,10,15,52,14.20
2007,10,10,15,53,14.20
2007,10,10,15,54,14.10
2007,10,10,15,55,14.10
2007,10,10,15,56,14.10
2007,10,10,15,57,14.00
2007,10,10,15,58,14.00
2007,10,10,15,59,14.00
2007,10,10,16,00,13.90
2007,10,10,16,01,13.90
2007,10,10,16,02,13.90
2007,10,10,16,03,13.90
2007,10,10,16,04,13.90
2007,10,10,16,05,13.80
2007,10,10,16,06,13.90
2007,10,10,16,07,13.90
2007,10,10,16,08,13.90
2007,10,10,16,09,13.90
2007,10,10,16,10,13.90
2007,10,10,16,11,14.00
2007,10,10,16,12,14.00
2007,10,10,16,13,14.10
2007,10,10,16,14,14.10
2007,10,10,16,15,14.10
2007,10,10,16,16,14.10
2007,10,10,16,17,14.10
2007,10,10,16,18,14.10
2007,10,10,16,19,14.10
2007,10,10,16,20,14.10
2007,10,10,16,21,14.10
2007,10,10,16,22,14.20
2007,10,10,16,23,14.20
2007,10,10,16,24,14.20
2007,10,10,16,25,14.20
2007,10,10,16,26,14.20
2007,10,10,16,27,14.20
2007,10,10,16,28,14.20
2007,10,10,16,29,14.20
2007,10,10,16,30,14.20
2007,10,10,16,31,14.20
2007,10,10,16,32,14.20
2007,10,10,16,33,14.20
2007,10,10,16,34,14.20
2007,10,10,16,35,14.20
2007,10,10,16,36,14.20
2007,10,10,16,37,14.20
2007,10,10,16,38,14.20
2007,10,10,16,39,14.10
2007,10,10,16,40,14.10
2007,10,10,16,41,14.10
2007,10,10,16,42,14.00
2007,10,10,16,43,14.00
2007,10,10,16,44,13.90
2007,10,10,16,45,13.90
2007,10,10,16,46,13.90
2007,10,10,16,47,13.80
2007,10,10,16,48,13.80
2007,10,10,16,49,13.80
2007,10,10,16,50,13.70
2007,10,10,16,51,13.70
2007,10,10,16,52,13.70
2007,10,10,16,53,13.60
2007,10,10,16,54,13.60
2007,10,10,16,55,13.60
2007,10,10,16,56,13.60
2007,10,10,16,57,13.60
2007,10,10,16,58,13.60
2007,10,10,16,59,13.50
2007,10,10,17,00,13.50
2007,10,10,17,01,13.50
2007,10,10,17,02,13.40
2007,10,10,17,03,13.40
2007,10,10,17,04,13.40
2007,10,10,17,05,13.40
2007,10,10,17,06,13.40
2007,10,10,17,07,13.40
2007,10,10,17,08,13.40
2007,10,10,17,09,13.40
2007,10,10,17,10,13.40
2007,10,10,17,11,13.40
2007,10,10,17,12,13.50
2007,10,10,17,13,13.50
2007,10,10,17,14,13.50
2007,10,10,17,15,13.60
2007,10,10,17,16,13.60
2007,10,10,17,17,13.60
2007,10,10,17,18,13.70
2007,10,10,17,19,13.70
2007,10,10,17,20,13.70
2007,10,10,17,21,13.80
2007,10,10,17,22,13.80